[[{"header":{"parameterUnit":"m.s-1","parameterCategory":1,"la1":30.2991,"la2":30.254,"lo1":-89.0895,"lo2":-89.0444,"dy":0.0017,"dx":0.0017,"nx":28,"ny":28,"refTime":"2025-12-31T03:00:00:Z","depth":0,"parameterNumber":2,"parameterNumberName":"U-component_of_WINDS"},"data":[0,0,0,0,0,0,0,0,0,0,0,0,0,0,0,0,0,0,0,0,0,0,0,0,0,0,0,0,0,0,0,0,0,0,0,0,0,0,0,0,0,0,0,0,0,0,0,0,0,0,0,0,0,0,0,0,0,0,2.0971,2.0971,0,2.096,2.096,2.096,2.0928,2.0927,2.0926,2.0925,2.0914,2.0914,2.0915,0,0,0,0,0,0,0,0,0,0,0,0,0,2.0963,2.0963,2.0971,2.0971,2.097,2.096,2.096,2.096,2.0928,2.0927,2.0926,2.0925,2.0914,2.0914,2.0915,0,0,0,0,0,0,0,0,0,0,0,0,0,2.0961,2.0963,2.0971,2.0953,2.0951,2.096,2.096,2.096,2.0928,2.0927,2.0926,2.0925,2.0914,2.0914,2.0915,2.094,0,0,2.0916,2.0917,0,0,0,0,0,0,0,0,2.0961,2.0961,2.0956,2.0954,2.0952,2.0944,2.0953,2.0953,2.0928,2.0937,2.0925,2.0924,2.0925,2.0924,2.0925,2.0939,2.0939,2.0916,2.0917,2.0917,2.0917,0,0,0,0,0,0,0,2.0961,2.0961,2.0967,2.0956,2.0954,2.0946,2.0944,2.0953,2.0937,2.0936,2.0934,2.0933,2.0924,2.0924,2.0924,2.0938,2.0916,2.0917,2.0917,2.0917,2.0974,2.0975,0,0,0,0,0,0,2.0964,2.0962,2.0967,2.0966,2.0954,2.0947,2.0945,2.0948,2.0937,2.0934,2.0934,2.0931,2.0924,2.0924,2.0924,2.0953,2.0917,2.0917,2.0918,2.0973,2.0974,2.0975,0,0,0,0,0,0,2.0964,2.0965,2.0967,2.0963,2.0963,2.0948,2.0951,2.0948,2.0949,2.0935,2.0932,2.0937,2.0923,2.0923,2.0936,2.0952,2.0918,2.0918,2.0971,2.0973,2.0975,2.1011,0,0,0,0,0,0,2.0964,2.0965,2.0974,2.0964,2.0963,2.098,2.0952,2.0949,2.095,2.0947,2.0938,2.0935,2.0922,2.0936,2.0937,2.0952,2.0919,2.097,2.0972,2.0974,2.1008,2.1013,2.1018,0,0,0,0,0,2.0963,2.0984,2.0974,2.0975,2.0975,2.0981,2.0981,2.0966,2.0951,2.0961,2.0952,2.0935,2.095,2.0937,2.0938,2.0954,2.0969,2.0972,2.0974,2.1006,2.1012,2.1018,0,0,0,0,0,0,2.0995,2.0982,2.0972,2.0989,2.0987,2.0975,2.0986,2.0973,2.0974,2.0971,2.0952,2.095,2.0966,2.0961,2.0947,2.0978,2.0957,2.096,2.0981,2.0987,2.0992,2.0992,2.0919,0,0,0,0,0,2.1005,2.1011,2.0999,2.1016,2.1015,2.1001,2.1003,2.0992,2.0989,2.0987,2.0979,2.0976,2.098,2.0983,2.0986,2.1008,2.1005,2.1019,2.1024,2.1028,2.1031,2.1043,2.1049,2.0984,2.0984,2.0984,0,0,2.1023,2.1017,2.1022,2.1022,2.1019,2.1026,2.1,2.1009,2.1014,2.0988,2.1001,2.0995,2.0991,2.1008,2.1016,2.1005,2.1048,2.1031,2.1035,2.1035,2.1046,2.1052,2.1057,2.0986,2.0986,2.0985,0,0,2.1061,2.1057,2.1071,2.1069,2.1064,2.1055,2.1059,2.105,2.1045,2.1058,2.1039,2.1045,2.1052,2.105,2.105,2.1089,2.1074,2.1091,2.1117,2.1128,2.1134,2.1138,2.1152,2.1158,2.1093,2.1094,2.1094,0,2.1085,2.1095,2.108,2.109,2.1091,2.1069,2.1083,2.1082,2.1078,2.1079,2.1067,2.1077,2.1072,2.1089,2.1099,2.11,2.1104,2.1091,2.1134,2.1138,2.1142,2.1156,2.1161,2.1096,2.1095,2.1095,2.1095,0,2.1125,2.1133,2.1145,2.1143,2.1145,2.1157,2.1144,2.1148,2.1138,2.113,2.1143,2.1137,2.1139,2.1142,2.1131,2.1159,2.1152,2.1137,2.1116,2.1151,2.1163,2.1168,2.1098,2.1098,2.1097,2.1097,0,0,2.1182,2.1172,2.1177,2.1176,2.1171,2.1176,2.1188,2.119,2.1195,2.1194,2.1203,2.1211,2.1197,2.1197,2.1186,2.1197,2.1229,2.1181,2.118,2.119,2.1259,2.127,2.1277,2.1219,2.122,2.1221,2.126,0,2.1218,2.1237,2.1225,2.1246,2.1253,2.1233,2.1244,2.1242,2.1235,2.1241,2.1233,2.1239,2.1221,2.1221,2.1231,2.1223,2.1243,2.122,2.1228,2.1229,2.123,2.1283,2.1294,2.1331,2.1265,2.1265,2.1266,0,2.1262,2.1264,2.1287,2.1281,2.1283,2.1293,2.1295,2.13,2.1298,2.1292,2.1293,2.128,2.1291,2.1271,2.1286,2.1272,2.1274,2.1271,2.1272,2.1272,2.1249,2.1284,2.1342,2.1348,2.1273,2.1273,2.1272,0,2.1302,2.131,2.1325,2.1325,2.1318,2.1325,2.1323,2.1319,2.1322,2.1324,2.1325,2.1328,2.133,2.1333,2.1321,2.1307,2.1339,2.1316,2.1335,2.1335,2.1341,2.1341,2.1401,2.1344,2.1344,2.1344,2.1343,0,2.1344,2.1358,2.1342,2.1351,2.1368,2.1353,2.137,2.1365,2.1362,2.1371,2.1354,2.1361,2.1345,2.1352,2.1343,2.1358,2.1358,2.1355,2.1352,2.1356,2.1357,2.1357,2.1354,2.1345,2.1345,2.1344,2.1344,0,2.139,2.138,2.1395,2.1388,2.1386,2.1399,2.1393,2.1401,2.1394,2.1405,2.1406,2.1396,2.1402,2.1391,2.1396,2.139,2.1411,2.1405,2.1412,2.141,2.1429,2.1427,2.1491,2.1499,2.1437,2.1437,2.1438,0,2.1417,2.1428,2.1423,2.1427,2.1426,2.1433,2.1436,2.1423,2.1427,2.1426,2.1434,2.144,2.1444,2.1456,2.1448,2.1453,2.1446,2.1468,2.1446,2.1451,2.1447,2.1446,2.1447,2.1472,2.1473,2.1474,2.1474,0,2.1466,2.1461,2.1466,2.147,2.1474,2.1477,2.1478,2.1482,2.1468,2.1474,2.1481,2.1484,2.149,2.1496,2.1499,2.1497,2.1483,2.1481,2.1486,2.149,2.1494,2.1492,2.1424,2.148,2.1479,2.1479,2.1478,2.1478,2.1504,2.1513,2.1511,2.1518,2.1517,2.1519,2.1527,2.1522,2.1527,2.1532,2.1524,2.1533,2.1532,2.1534,2.1533,2.1541,2.1531,2.1537,2.1539,2.1541,2.1544,2.1493,2.1541,2.1541,2.1541,2.1541,2.1541,0,2.1552,2.1551,2.1557,2.1559,2.1565,2.1553,2.1554,2.1559,2.1568,2.1568,2.1572,2.1581,2.1587,2.1581,2.1586,2.1593,2.1587,2.1595,2.1594,2.1594,2.1552,2.1548,2.16,2.16,2.16,2.16,2.16,2.16,2.1578,2.1594,2.1589,2.1604,2.1602,2.1611,2.1613,2.1615,2.1615,2.1626,2.1631,2.1627,2.1625,2.163,2.1635,2.1633,2.1636,2.1646,2.1642,2.1603,2.1597,2.1591,2.1587,2.1647,2.1647,2.1683,2.1684,2.1684]},{"header":{"parameterUnit":"m.s-1","parameterCategory":1,"la1":30.2991,"la2":30.254,"lo1":-89.0895,"lo2":-89.0444,"dy":0.0017,"dx":0.0017,"nx":28,"ny":28,"refTime":"2025-12-31T03:00:00:Z","depth":0,"parameterNumber":3,"parameterNumberName":"V-component_of_WINDS"},"data":[0,0,0,0,0,0,0,0,0,0,0,0,0,0,0,0,0,0,0,0,0,0,0,0,0,0,0,0,0,0,0,0,0,0,0,0,0,0,0,0,0,0,0,0,0,0,0,0,0,0,0,0,0,0,0,0,0,0,-6.4886,-6.4888,0,-6.5027,-6.5029,-6.503,-6.5015,-6.5013,-6.501,-6.5008,-6.5148,-6.5153,-6.5159,0,0,0,0,0,0,0,0,0,0,0,0,0,-6.4599,-6.4605,-6.4886,-6.4888,-6.489,-6.5027,-6.5029,-6.5031,-6.5015,-6.5013,-6.501,-6.5007,-6.5146,-6.5153,-6.516,0,0,0,0,0,0,0,0,0,0,0,0,0,-6.473,-6.4606,-6.4886,-6.4898,-6.4901,-6.5027,-6.5029,-6.5031,-6.5016,-6.5012,-6.5009,-6.5006,-6.5144,-6.5152,-6.5161,-6.5281,0,0,-6.5187,-6.5191,0,0,0,0,0,0,0,0,-6.4723,-6.4741,-6.4895,-6.4898,-6.4901,-6.5,-6.4979,-6.5115,-6.5017,-6.4972,-6.5008,-6.5004,-6.5101,-6.5113,-6.5147,-6.5287,-6.5293,-6.5188,-6.5193,-6.5197,-6.5199,0,0,0,0,0,0,0,-6.4714,-6.4735,-6.4942,-6.4897,-6.4901,-6.4896,-6.4911,-6.5005,-6.5053,-6.4976,-6.4975,-6.4992,-6.5102,-6.5138,-6.515,-6.5295,-6.5188,-6.5195,-6.5201,-6.5204,-6.5544,-6.5547,0,0,0,0,0,0,-6.4702,-6.4727,-6.4937,-6.4946,-6.4802,-6.4904,-6.4921,-6.4972,-6.5052,-6.5062,-6.4995,-6.4991,-6.5125,-6.514,-6.5155,-6.5302,-6.5197,-6.5205,-6.521,-6.554,-6.5545,-6.5549,0,0,0,0,0,0,-6.4696,-6.4721,-6.4931,-6.4837,-6.4863,-6.4912,-6.497,-6.4976,-6.5012,-6.5067,-6.5075,-6.5023,-6.5123,-6.5142,-6.525,-6.5307,-6.5209,-6.5217,-6.5535,-6.5541,-6.5547,-6.5597,0,0,0,0,0,0,-6.4688,-6.4719,-6.4766,-6.4838,-6.4868,-6.5026,-6.4973,-6.4981,-6.5028,-6.5024,-6.5096,-6.5104,-6.5122,-6.5238,-6.5259,-6.5317,-6.5223,-6.5531,-6.5538,-6.5545,-6.5591,-6.5604,-6.5615,0,0,0,0,0,-6.4678,-6.4773,-6.4768,-6.4794,-6.4928,-6.5029,-6.5047,-6.5067,-6.5033,-6.508,-6.5115,-6.5102,-6.5297,-6.5249,-6.5273,-6.5334,-6.5527,-6.5536,-6.5544,-6.5585,-6.5601,-6.5615,0,0,0,0,0,0,-6.4704,-6.4783,-6.4778,-6.49,-6.4959,-6.5027,-6.5087,-6.5083,-6.5151,-6.5144,-6.5164,-6.518,-6.529,-6.5322,-6.5267,-6.5456,-6.5407,-6.5421,-6.543,-6.5446,-6.5458,-6.5448,-6.5231,0,0,0,0,0,-6.4725,-6.4802,-6.4865,-6.4966,-6.4996,-6.5037,-6.5082,-6.5092,-6.5153,-6.5177,-6.522,-6.5278,-6.5353,-6.5401,-6.5472,-6.5596,-6.5611,-6.565,-6.5662,-6.5672,-6.5683,-6.5752,-6.577,-6.5577,-6.5577,-6.5577,0,0,-6.4767,-6.4819,-6.4866,-6.4973,-6.502,-6.5099,-6.5057,-6.5142,-6.52,-6.5189,-6.5295,-6.5328,-6.5394,-6.5511,-6.5564,-6.5542,-6.574,-6.5683,-6.569,-6.5696,-6.5763,-6.5781,-6.5797,-6.5583,-6.5582,-6.5581,0,0,-6.4884,-6.4931,-6.5021,-6.507,-6.5142,-6.5168,-6.519,-6.526,-6.5283,-6.5389,-6.5383,-6.5452,-6.558,-6.5628,-6.5669,-6.5807,-6.5797,-6.5829,-6.5893,-6.596,-6.5975,-6.5989,-6.6039,-6.6056,-6.5841,-6.5841,-6.5841,0,-6.4926,-6.5046,-6.5068,-6.5154,-6.5202,-6.5198,-6.5289,-6.5334,-6.5425,-6.5458,-6.5431,-6.5593,-6.5637,-6.5766,-6.58,-6.5833,-6.5858,-6.5821,-6.5972,-6.5985,-6.5998,-6.6046,-6.6065,-6.5844,-6.5844,-6.5843,-6.5843,0,-6.5096,-6.5179,-6.5243,-6.5334,-6.5388,-6.5477,-6.5511,-6.5563,-6.557,-6.5599,-6.5708,-6.5761,-6.5844,-6.5875,-6.5881,-6.6005,-6.5989,-6.5967,-6.5919,-6.602,-6.6065,-6.6084,-6.5849,-6.5848,-6.5847,-6.5846,0,0,-6.5232,-6.5336,-6.5359,-6.5401,-6.5481,-6.5545,-6.5633,-6.5717,-6.5762,-6.5825,-6.5899,-6.6009,-6.599,-6.6036,-6.6047,-6.6106,-6.6213,-6.6077,-6.6079,-6.6101,-6.6355,-6.6371,-6.6392,-6.6208,-6.6211,-6.6214,-6.6349,0,-6.5358,-6.5516,-6.5539,-6.5678,-6.5756,-6.5754,-6.5831,-6.5888,-6.5918,-6.5987,-6.6019,-6.6097,-6.6066,-6.6094,-6.6152,-6.6188,-6.6265,-6.6179,-6.6277,-6.628,-6.6261,-6.6415,-6.6433,-6.6557,-6.6367,-6.637,-6.6372,0,-6.5525,-6.5596,-6.5744,-6.5815,-6.5848,-6.5917,-6.5997,-6.6063,-6.6128,-6.6146,-6.6199,-6.6204,-6.6295,-6.6243,-6.6369,-6.631,-6.6352,-6.6375,-6.6381,-6.6391,-6.6332,-6.643,-6.6598,-6.6617,-6.64,-6.6398,-6.6396,0,-6.5611,-6.5743,-6.5849,-6.5884,-6.597,-6.6019,-6.6057,-6.6118,-6.6168,-6.6236,-6.6269,-6.6346,-6.6389,-6.6448,-6.6473,-6.6434,-6.6598,-6.6548,-6.6615,-6.6614,-6.6649,-6.6647,-6.6826,-6.6675,-6.6675,-6.6675,-6.6674,0,-6.5749,-6.5839,-6.5889,-6.5954,-6.6056,-6.6081,-6.618,-6.6216,-6.6272,-6.6343,-6.6345,-6.6412,-6.6442,-6.6513,-6.6533,-6.6634,-6.6653,-6.6669,-6.6674,-6.667,-6.6668,-6.6697,-6.6689,-6.668,-6.6679,-6.6678,-6.6677,0,-6.5861,-6.5898,-6.6014,-6.6087,-6.6107,-6.6179,-6.6241,-6.6304,-6.6334,-6.6425,-6.6447,-6.6494,-6.6578,-6.661,-6.6711,-6.6725,-6.6843,-6.6839,-6.6822,-6.6823,-6.6888,-6.6882,-6.7093,-6.7122,-6.6951,-6.6953,-6.6954,0,-6.5947,-6.6018,-6.6099,-6.6148,-6.6189,-6.6267,-6.6319,-6.6346,-6.6399,-6.648,-6.6533,-6.6617,-6.6686,-6.6821,-6.6863,-6.6941,-6.694,-6.7009,-6.6952,-6.6946,-6.6942,-6.6938,-6.6946,-6.7019,-6.7021,-6.7023,-6.7024,0,-6.6096,-6.6111,-6.6186,-6.6268,-6.633,-6.6395,-6.6458,-6.6498,-6.6535,-6.6594,-6.6682,-6.6736,-6.6841,-6.6925,-6.7006,-6.7043,-6.704,-6.7042,-6.7061,-6.7058,-6.7045,-6.7054,-6.6851,-6.7037,-6.7035,-6.7034,-6.7034,-6.7033,-6.6198,-6.6262,-6.633,-6.6413,-6.6464,-6.6524,-6.6587,-6.6627,-6.6701,-6.679,-6.6802,-6.6896,-6.696,-6.7069,-6.711,-6.7183,-6.7164,-6.7193,-6.72,-6.7207,-6.7212,-6.7034,-6.7198,-6.7197,-6.7197,-6.7197,-6.7197,0,-6.6348,-6.6392,-6.6469,-6.6559,-6.6625,-6.6619,-6.6689,-6.6744,-6.6827,-6.6888,-6.6957,-6.7058,-6.714,-6.719,-6.7272,-6.7321,-6.7322,-6.7342,-6.7338,-6.7347,-6.7223,-6.7199,-6.734,-6.734,-6.734,-6.734,-6.734,-6.734,-6.6434,-6.6541,-6.6564,-6.6697,-6.674,-6.6834,-6.6875,-6.693,-6.6979,-6.7093,-6.7162,-6.7194,-6.7251,-6.7338,-6.7412,-6.7425,-6.7455,-6.7477,-6.7488,-6.7371,-6.7356,-6.7342,-6.7319,-6.7483,-6.7483,-6.7606,-6.7607,-6.7608]}]]